Time,TemperatureF,DewpointF,PressureIn,WindDirection,WindDirectionDegrees,WindSpeedMPH,WindSpeedGustMPH,Humidity,HourlyPrecipIn,Conditions,Clouds,dailyrainin,SolarRadiationWatts/m^2,SoftwareType,DateUTC
2013-01-06 00:00:00,34.5,15.3,30.06,SW,225,4.0,5.8,45,0.00,CLR,,0.00,0.0,WeatherDisplay:10.37,2013-01-06 05:00:00,
2013-01-06 00:01:00,34.5,15.3,30.06,South,180,3.1,4.6,45,0.00,CLR,,0.00,0.0,WeatherDisplay:10.37,2013-01-06 05:01:00,
2013-01-06 00:03:00,34.5,15.3,30.06,SSW,202,4.0,5.8,45,0.00,CLR,,0.00,0.0,WeatherDisplay:10.37,2013-01-06 05:03:00,
2013-01-06 00:05:00,34.5,15.3,30.06,SW,225,6.2,8.1,45,0.00,CLR,,0.00,0.0,WeatherDisplay:10.37,2013-01-06 05:05:00,
2013-01-06 00:06:00,34.5,15.3,30.06,West,270,6.2,8.1,45,0.00,CLR,,0.00,0.0,WeatherDisplay:10.37,2013-01-06 05:06:00,
2013-01-06 00:11:00,34.5,15.3,30.06,SW,225,4.0,5.8,45,0.00,CLR,,0.00,0.0,WeatherDisplay:10.37,2013-01-06 05:11:00,
2013-01-06 00:16:00,34.5,15.3,30.06,SW,225,3.1,4.6,45,0.00,CLR,,0.00,0.0,WeatherDisplay:10.37,2013-01-06 05:16:00,
2013-01-06 00:21:00,34.3,15.2,30.06,West,270,2.6,4.6,45,0.00,CLR,,0.00,0.0,WeatherDisplay:10.37,2013-01-06 05:21:00,
2013-01-06 00:26:00,34.3,15.7,30.06,SSW,202,4.0,5.8,46,0.00,CLR,,0.00,0.0,WeatherDisplay:10.37,2013-01-06 05:26:00,
2013-01-06 00:31:00,34.3,15.7,30.06,South,180,4.5,5.8,46,0.00,CLR,,0.00,0.0,WeatherDisplay:10.37,2013-01-06 05:31:00,
2013-01-06 00:36:00,34.3,15.7,30.06,SW,225,4.5,5.9,46,0.00,CLR,,0.00,0.0,WeatherDisplay:10.37,2013-01-06 05:36:00,
2013-01-06 00:41:00,34.3,15.7,30.06,SSW,202,4.5,5.9,46,0.00,CLR,,0.00,0.0,WeatherDisplay:10.37,2013-01-06 05:41:00,
2013-01-06 00:46:00,34.2,16.0,30.06,SW,225,3.1,4.6,47,0.00,CLR,,0.00,0.0,WeatherDisplay:10.37,2013-01-06 05:46:00,
2013-01-06 00:51:00,34.2,16.0,30.06,South,180,3.1,4.6,47,0.00,CLR,,0.00,0.0,WeatherDisplay:10.37,2013-01-06 05:51:00,
2013-01-06 00:56:00,34.0,15.8,30.06,SW,225,3.1,4.6,47,0.00,CLR,,0.00,0.0,WeatherDisplay:10.37,2013-01-06 05:56:00,
2013-01-06 01:01:00,34.0,16.3,30.06,SW,225,4.0,4.6,48,0.00,CLR,,0.00,0.0,WeatherDisplay:10.37,2013-01-06 06:01:00,
2013-01-06 01:06:00,33.8,16.2,30.06,South,180,0.0,4.6,48,0.00,CLR,,0.00,0.0,WeatherDisplay:10.37,2013-01-06 06:06:00,
2013-01-06 01:11:00,33.6,16.5,30.06,SW,225,3.1,5.8,49,0.00,CLR,,0.00,0.0,WeatherDisplay:10.37,2013-01-06 06:11:00,
2013-01-06 01:16:00,33.6,16.9,30.06,SW,225,4.0,5.9,50,0.00,CLR,,0.00,0.0,WeatherDisplay:10.37,2013-01-06 06:16:00,
2013-01-06 01:21:00,33.4,16.8,30.06,SSE,158,4.9,8.1,50,0.00,CLR,,0.00,0.0,WeatherDisplay:10.37,2013-01-06 06:21:00,
2013-01-06 01:26:00,33.3,16.6,30.06,SW,225,4.0,5.4,50,0.00,CLR,,0.00,0.0,WeatherDisplay:10.37,2013-01-06 06:26:00,
2013-01-06 01:31:00,33.1,16.9,30.06,SSW,202,3.6,6.9,51,0.00,CLR,,0.00,0.0,WeatherDisplay:10.37,2013-01-06 06:31:00,
2013-01-06 01:36:00,32.9,16.7,30.06,South,180,3.1,4.5,51,0.00,CLR,,0.00,0.0,WeatherDisplay:10.37,2013-01-06 06:36:00,
2013-01-06 01:41:00,32.7,16.6,30.03,SW,225,3.6,4.6,51,0.00,CLR,,0.00,0.0,WeatherDisplay:10.37,2013-01-06 06:41:00,
2013-01-06 01:46:00,32.5,16.8,30.03,SW,225,4.0,5.8,52,0.00,CLR,,0.00,0.0,WeatherDisplay:10.37,2013-01-06 06:46:00,
2013-01-06 01:51:00,32.5,16.8,30.03,SSW,202,3.6,6.2,52,0.00,CLR,,0.00,0.0,WeatherDisplay:10.37,2013-01-06 06:51:00,
2013-01-06 01:56:00,32.5,17.3,30.03,South,180,4.0,5.8,53,0.00,CLR,,0.00,0.0,WeatherDisplay:10.37,2013-01-06 06:56:00,
2013-01-06 02:01:00,32.7,17.5,30.03,South,180,2.6,5.8,53,0.00,CLR,,0.00,0.0,WeatherDisplay:10.37,2013-01-06 07:01:00,
2013-01-06 02:06:00,32.7,17.5,30.03,SSW,202,3.6,4.6,53,0.00,CLR,,0.00,0.0,WeatherDisplay:10.37,2013-01-06 07:06:00,
2013-01-06 02:11:00,32.7,17.5,30.03,South,180,4.0,5.8,53,0.00,CLR,,0.00,0.0,WeatherDisplay:10.37,2013-01-06 07:11:00,
2013-01-06 02:16:00,32.9,17.6,30.03,South,180,3.6,4.9,53,0.00,CLR,,0.00,0.0,WeatherDisplay:10.37,2013-01-06 07:16:00,
2013-01-06 02:21:00,32.7,17.5,30.03,South,180,4.0,6.2,53,0.00,CLR,,0.00,0.0,WeatherDisplay:10.37,2013-01-06 07:21:00,
2013-01-06 02:26:00,32.7,17.5,30.09,SSW,202,3.6,4.9,53,0.00,CLR,,0.00,0.0,WeatherDisplay:10.37,2013-01-06 07:26:00,
2013-01-06 02:31:00,32.7,17.5,30.09,SW,225,3.1,4.5,53,0.00,CLR,,0.00,0.0,WeatherDisplay:10.37,2013-01-06 07:31:00,
2013-01-06 02:36:00,32.7,17.9,30.09,SW,225,4.5,5.9,54,0.00,CLR,,0.00,0.0,WeatherDisplay:10.37,2013-01-06 07:36:00,
2013-01-06 02:41:00,32.5,17.7,30.03,South,180,4.0,5.4,54,0.00,CLR,,0.00,0.0,WeatherDisplay:10.37,2013-01-06 07:41:00,
2013-01-06 02:46:00,32.5,17.7,30.03,South,180,3.6,4.6,54,0.00,CLR,,0.00,0.0,WeatherDisplay:10.37,2013-01-06 07:46:00,
2013-01-06 02:51:00,32.5,17.7,30.03,South,180,4.0,8.1,54,0.00,CLR,,0.00,0.0,WeatherDisplay:10.37,2013-01-06 07:51:00,
2013-01-06 02:56:00,32.5,17.7,30.03,South,180,5.9,8.1,54,0.00,CLR,,0.00,0.0,WeatherDisplay:10.37,2013-01-06 07:56:00,
2013-01-06 03:01:00,32.7,17.5,30.03,South,180,5.9,8.1,53,0.00,CLR,,0.00,0.0,WeatherDisplay:10.37,2013-01-06 08:01:00,
2013-01-06 03:06:00,32.7,17.5,30.03,SW,225,4.5,7.6,53,0.00,CLR,,0.00,0.0,WeatherDisplay:10.37,2013-01-06 08:06:00,
2013-01-06 03:11:00,32.9,17.2,30.03,South,180,4.9,8.1,52,0.00,CLR,,0.00,0.0,WeatherDisplay:10.37,2013-01-06 08:11:00,
2013-01-06 03:16:00,32.9,17.2,30.03,South,180,4.5,5.8,52,0.00,CLR,,0.00,0.0,WeatherDisplay:10.37,2013-01-06 08:16:00,
2013-01-06 03:21:00,33.1,16.9,30.03,South,180,5.4,8.1,51,0.00,CLR,,0.00,0.0,WeatherDisplay:10.37,2013-01-06 08:21:00,
2013-01-06 03:26:00,33.1,16.9,30.06,SW,225,4.9,7.6,51,0.00,CLR,,0.00,0.0,WeatherDisplay:10.37,2013-01-06 08:26:00,
2013-01-06 03:31:00,33.1,16.9,30.06,South,180,4.9,8.3,51,0.00,CLR,,0.00,0.0,WeatherDisplay:10.37,2013-01-06 08:31:00,
2013-01-06 03:36:00,33.1,16.9,30.06,South,180,5.4,7.1,51,0.00,CLR,,0.00,0.0,WeatherDisplay:10.37,2013-01-06 08:36:00,
2013-01-06 03:41:00,33.3,16.6,30.03,SSW,202,5.9,6.9,50,0.00,CLR,,0.00,0.0,WeatherDisplay:10.37,2013-01-06 08:41:00,
2013-01-06 03:46:00,33.3,16.1,30.03,SW,225,6.2,8.3,49,0.00,CLR,,0.00,0.0,WeatherDisplay:10.37,2013-01-06 08:46:00,
2013-01-06 03:51:00,33.3,16.1,30.03,South,180,4.0,5.8,49,0.00,CLR,,0.00,0.0,WeatherDisplay:10.37,2013-01-06 08:51:00,
2013-01-06 03:56:00,33.4,15.8,30.00,SSW,202,5.4,6.7,48,0.00,CLR,,0.00,0.0,WeatherDisplay:10.37,2013-01-06 08:56:00,
2013-01-06 04:01:00,33.4,15.3,30.00,South,180,5.9,6.9,47,0.00,CLR,,0.00,0.0,WeatherDisplay:10.37,2013-01-06 09:01:00,
2013-01-06 04:06:00,33.6,15.5,30.00,South,180,3.1,5.8,47,0.00,CLR,,0.00,0.0,WeatherDisplay:10.37,2013-01-06 09:06:00,
2013-01-06 04:11:00,33.6,15.0,30.00,SW,225,6.2,8.3,46,0.00,CLR,,0.00,0.0,WeatherDisplay:10.37,2013-01-06 09:11:00,
2013-01-06 04:16:00,33.6,15.0,30.00,SW,225,3.6,5.9,46,0.00,CLR,,0.00,0.0,WeatherDisplay:10.37,2013-01-06 09:16:00,
2013-01-06 04:21:00,33.6,15.0,30.00,South,180,3.1,6.2,46,0.00,CLR,,0.00,0.0,WeatherDisplay:10.37,2013-01-06 09:21:00,
2013-01-06 04:26:00,33.6,15.0,30.03,South,180,6.2,8.7,46,0.00,CLR,,0.00,0.0,WeatherDisplay:10.37,2013-01-06 09:26:00,
2013-01-06 04:31:00,33.6,15.0,30.03,SW,225,4.0,5.8,46,0.00,CLR,,0.00,0.0,WeatherDisplay:10.37,2013-01-06 09:31:00,
2013-01-06 04:36:00,33.6,15.0,30.03,South,180,4.0,8.1,46,0.00,CLR,,0.00,0.0,WeatherDisplay:10.37,2013-01-06 09:36:00,
2013-01-06 04:41:00,33.6,15.0,30.00,SW,225,4.9,8.1,46,0.00,CLR,,0.00,0.0,WeatherDisplay:10.37,2013-01-06 09:41:00,
2013-01-06 04:46:00,33.6,15.0,30.00,SW,225,3.6,4.6,46,0.00,CLR,,0.00,0.0,WeatherDisplay:10.37,2013-01-06 09:46:00,
2013-01-06 04:51:00,33.6,15.0,30.00,South,180,4.9,5.8,46,0.00,CLR,,0.00,0.0,WeatherDisplay:10.37,2013-01-06 09:51:00,
2013-01-06 04:56:00,33.6,15.0,30.00,SSW,202,5.4,6.9,46,0.00,CLR,,0.00,0.0,WeatherDisplay:10.37,2013-01-06 09:56:00,
2013-01-06 05:01:00,33.6,15.5,30.00,South,180,3.1,4.6,47,0.00,CLR,,0.00,0.0,WeatherDisplay:10.37,2013-01-06 10:01:00,
2013-01-06 05:06:00,33.8,15.2,30.00,South,180,2.2,8.1,46,0.00,CLR,,0.00,0.0,WeatherDisplay:10.37,2013-01-06 10:06:00,
2013-01-06 05:11:00,34.0,14.8,30.00,SSW,202,5.9,8.1,45,0.00,CLR,,0.00,0.0,WeatherDisplay:10.37,2013-01-06 10:11:00,
2013-01-06 05:16:00,34.0,14.8,30.00,SSW,202,6.2,14.5,45,0.00,CLR,,0.00,0.0,WeatherDisplay:10.37,2013-01-06 10:16:00,
2013-01-06 05:21:00,34.3,15.2,30.00,SW,225,6.2,8.1,45,0.00,CLR,,0.00,0.0,WeatherDisplay:10.37,2013-01-06 10:21:00,
2013-01-06 05:26:00,34.3,14.7,30.00,NW,315,4.5,5.4,44,0.00,CLR,,0.00,0.0,WeatherDisplay:10.37,2013-01-06 10:26:00,
2013-01-06 05:31:00,34.3,14.7,30.00,SW,225,6.2,10.0,44,0.00,CLR,,0.00,0.0,WeatherDisplay:10.37,2013-01-06 10:31:00,
2013-01-06 05:36:00,34.5,14.8,30.00,SW,225,7.6,8.3,44,0.00,CLR,,0.00,0.0,WeatherDisplay:10.37,2013-01-06 10:36:00,
2013-01-06 05:41:00,34.3,15.2,29.97,NW,315,4.9,6.9,45,0.00,CLR,,0.00,0.0,WeatherDisplay:10.37,2013-01-06 10:41:00,
2013-01-06 05:46:00,34.3,15.2,29.97,South,180,4.5,8.1,45,0.00,CLR,,0.00,0.0,WeatherDisplay:10.37,2013-01-06 10:46:00,
2013-01-06 05:51:00,34.2,15.5,29.97,South,180,7.1,8.1,46,0.00,CLR,,0.00,0.0,WeatherDisplay:10.37,2013-01-06 10:51:00,
2013-01-06 05:56:00,34.2,15.5,29.97,SSE,158,4.9,5.8,46,0.00,CLR,,0.00,0.0,WeatherDisplay:10.37,2013-01-06 10:56:00,
2013-01-06 06:01:00,34.0,15.3,29.97,South,180,5.9,9.2,46,0.00,CLR,,0.00,0.0,WeatherDisplay:10.37,2013-01-06 11:01:00,
2013-01-06 06:06:00,34.0,15.8,29.97,SW,225,4.9,6.2,47,0.00,CLR,,0.00,0.0,WeatherDisplay:10.37,2013-01-06 11:06:00,
2013-01-06 06:11:00,34.0,16.3,29.97,SW,225,5.4,8.1,48,0.00,CLR,,0.00,0.0,WeatherDisplay:10.37,2013-01-06 11:11:00,
2013-01-06 06:16:00,34.0,16.3,29.97,South,180,5.4,5.9,48,0.00,CLR,,0.00,0.0,WeatherDisplay:10.37,2013-01-06 11:16:00,
2013-01-06 06:21:00,34.0,16.3,29.97,South,180,3.6,8.1,48,0.00,CLR,,0.00,0.0,WeatherDisplay:10.37,2013-01-06 11:21:00,
2013-01-06 06:26:00,34.0,16.8,29.97,WSW,248,5.4,8.1,49,0.00,CLR,,0.00,0.0,WeatherDisplay:10.37,2013-01-06 11:26:00,
2013-01-06 06:31:00,34.0,16.8,29.97,South,180,3.6,5.8,49,0.00,CLR,,0.00,0.0,WeatherDisplay:10.37,2013-01-06 11:31:00,
2013-01-06 06:36:00,34.2,17.0,29.97,South,180,4.0,5.8,49,0.00,CLR,,0.00,0.0,WeatherDisplay:10.37,2013-01-06 11:36:00,
2013-01-06 06:41:00,34.2,17.0,30.00,SW,225,5.9,6.9,49,0.00,CLR,,0.00,0.0,WeatherDisplay:10.37,2013-01-06 11:41:00,
2013-01-06 06:46:00,34.2,17.0,30.00,SSW,202,3.6,4.6,49,0.00,CLR,,0.00,0.0,WeatherDisplay:10.37,2013-01-06 11:46:00,
2013-01-06 06:51:00,34.3,16.7,30.00,SW,225,5.9,10.4,48,0.00,CLR,,0.00,0.0,WeatherDisplay:10.37,2013-01-06 11:51:00,
2013-01-06 06:56:00,34.3,16.7,29.97,SSW,202,6.7,8.3,48,0.00,CLR,,0.00,0.0,WeatherDisplay:10.37,2013-01-06 11:56:00,
2013-01-06 07:01:00,34.3,17.1,29.97,SSW,202,5.9,9.2,49,0.00,CLR,,0.00,0.0,WeatherDisplay:10.37,2013-01-06 12:01:00,
2013-01-06 07:06:00,34.3,17.1,29.97,SW,225,6.2,8.1,49,0.00,CLR,,0.00,0.0,WeatherDisplay:10.37,2013-01-06 12:06:00,
2013-01-06 07:11:00,34.3,17.1,29.97,SW,225,7.1,8.1,49,0.00,CLR,,0.00,0.0,WeatherDisplay:10.37,2013-01-06 12:11:00,
2013-01-06 07:16:00,34.3,17.1,29.97,NNW,338,5.9,10.4,49,0.00,CLR,,0.00,0.0,WeatherDisplay:10.37,2013-01-06 12:16:00,
2013-01-06 07:21:00,34.3,17.1,29.97,West,270,5.9,10.4,49,0.00,CLR,,0.00,0.0,WeatherDisplay:10.37,2013-01-06 12:21:00,
2013-01-06 07:26:00,34.3,17.6,29.97,South,180,3.1,5.8,50,0.00,OVC,,0.00,0.0,WeatherDisplay:10.37,2013-01-06 12:26:00,
2013-01-06 07:31:00,34.3,17.6,29.97,West,270,5.9,7.1,50,0.00,OVC,,0.00,0.0,WeatherDisplay:10.37,2013-01-06 12:31:00,
2013-01-06 07:36:00,34.3,17.6,29.97,SSW,202,4.0,8.1,50,0.00,OVC,,0.00,0.0,WeatherDisplay:10.37,2013-01-06 12:36:00,
2013-01-06 07:41:00,34.3,17.6,29.97,South,180,4.9,5.9,50,0.00,OVC,,0.00,0.0,WeatherDisplay:10.37,2013-01-06 12:41:00,
2013-01-06 07:46:00,34.3,17.6,29.97,SSW,202,7.1,8.1,50,0.00,OVC,,0.00,0.0,WeatherDisplay:10.37,2013-01-06 12:46:00,
2013-01-06 07:51:00,34.3,17.6,29.97,South,180,4.0,8.1,50,0.00,OVC,,0.00,0.0,WeatherDisplay:10.37,2013-01-06 12:51:00,
2013-01-06 07:56:00,34.3,17.6,30.00,SSE,158,8.1,11.5,50,0.00,OVC,,0.00,0.0,WeatherDisplay:10.37,2013-01-06 12:56:00,
2013-01-06 08:01:00,34.3,17.6,30.00,SSW,202,6.2,8.1,50,0.00,OVC,,0.00,0.0,WeatherDisplay:10.37,2013-01-06 13:01:00,
2013-01-06 08:06:00,34.3,17.6,30.00,SW,225,6.2,10.4,50,0.00,OVC,,0.00,0.0,WeatherDisplay:10.37,2013-01-06 13:06:00,
2013-01-06 08:11:00,34.3,17.6,29.97,NW,315,3.1,6.9,50,0.00,OVC,,0.00,0.0,WeatherDisplay:10.37,2013-01-06 13:11:00,
2013-01-06 08:16:00,34.5,17.8,29.97,South,180,5.9,10.4,50,0.00,OVC,,0.00,0.0,WeatherDisplay:10.37,2013-01-06 13:16:00,
2013-01-06 08:21:00,34.5,17.8,29.97,West,270,4.0,9.2,50,0.00,OVC,,0.00,0.0,WeatherDisplay:10.37,2013-01-06 13:21:00,
2013-01-06 08:26:00,34.5,17.8,29.97,SW,225,7.1,8.7,50,0.00,OVC,,0.00,0.0,WeatherDisplay:10.37,2013-01-06 13:26:00,
2013-01-06 08:31:00,34.5,17.8,29.97,SSW,202,6.2,8.1,50,0.00,OVC,,0.00,0.0,WeatherDisplay:10.37,2013-01-06 13:31:00,
2013-01-06 08:36:00,34.5,17.8,29.97,SW,225,8.3,10.4,50,0.00,OVC,,0.00,0.0,WeatherDisplay:10.37,2013-01-06 13:36:00,
2013-01-06 08:41:00,34.5,17.8,30.00,SW,225,6.2,10.4,50,0.00,OVC,,0.00,0.0,WeatherDisplay:10.37,2013-01-06 13:41:00,
2013-01-06 08:46:00,34.7,17.9,30.00,SSW,202,6.7,9.2,50,0.00,OVC,,0.00,0.0,WeatherDisplay:10.37,2013-01-06 13:46:00,
2013-01-06 08:51:00,34.7,17.9,30.00,SW,225,4.9,8.1,50,0.00,OVC,,0.00,0.0,WeatherDisplay:10.37,2013-01-06 13:51:00,
2013-01-06 08:56:00,34.9,18.1,30.00,WSW,248,3.6,8.1,50,0.00,OVC,,0.00,0.0,WeatherDisplay:10.37,2013-01-06 13:56:00,
2013-01-06 09:01:00,34.9,18.1,30.00,SW,225,4.5,10.4,50,0.00,OVC,,0.00,0.0,WeatherDisplay:10.37,2013-01-06 14:01:00,
2013-01-06 09:06:00,34.9,18.1,30.00,South,180,6.2,8.1,50,0.00,OVC,,0.00,0.0,WeatherDisplay:10.37,2013-01-06 14:06:00,
2013-01-06 09:11:00,34.9,18.1,30.00,South,180,4.5,7.6,50,0.00,OVC,,0.00,0.0,WeatherDisplay:10.37,2013-01-06 14:11:00,
2013-01-06 09:16:00,34.9,18.1,30.00,SW,225,5.9,9.2,50,0.00,OVC,,0.00,100.0,WeatherDisplay:10.37,2013-01-06 14:16:00,
2013-01-06 09:21:00,35.1,18.3,30.00,WNW,292,6.2,10.4,50,0.00,OVC,,0.00,100.0,WeatherDisplay:10.37,2013-01-06 14:21:00,
2013-01-06 09:26:00,35.1,18.3,30.00,SW,225,4.0,5.9,50,0.00,OVC,,0.00,100.0,WeatherDisplay:10.37,2013-01-06 14:26:00,
2013-01-06 09:31:00,35.1,18.3,30.00,South,180,4.5,5.8,50,0.00,OVC,,0.00,100.0,WeatherDisplay:10.37,2013-01-06 14:31:00,
2013-01-06 09:36:00,35.2,18.4,30.00,West,270,4.0,5.8,50,0.00,OVC,,0.00,100.0,WeatherDisplay:10.37,2013-01-06 14:36:00,
2013-01-06 09:41:00,35.2,18.4,30.00,South,180,6.2,11.5,50,0.00,OVC,,0.00,200.0,WeatherDisplay:10.37,2013-01-06 14:41:00,
2013-01-06 09:46:00,35.4,18.6,30.00,SW,225,5.9,6.9,50,0.00,OVC,,0.00,200.0,WeatherDisplay:10.37,2013-01-06 14:46:00,
2013-01-06 09:51:00,35.4,18.1,30.00,South,180,6.2,8.7,49,0.00,OVC,,0.00,200.0,WeatherDisplay:10.37,2013-01-06 14:51:00,
2013-01-06 09:56:00,35.6,17.8,30.00,West,270,4.9,6.9,48,0.00,OVC,,0.00,100.0,WeatherDisplay:10.37,2013-01-06 14:56:00,
2013-01-06 10:01:00,35.6,17.8,30.00,SSE,158,6.7,11.5,48,0.00,OVC,,0.00,100.0,WeatherDisplay:10.37,2013-01-06 15:01:00,
2013-01-06 10:06:00,35.6,18.3,30.00,South,180,5.4,9.2,49,0.00,OVC,,0.00,100.0,WeatherDisplay:10.37,2013-01-06 15:06:00,
2013-01-06 10:11:00,35.4,18.1,30.00,South,180,4.5,9.2,49,0.00,OVC,,0.00,100.0,WeatherDisplay:10.37,2013-01-06 15:11:00,
2013-01-06 10:16:00,35.6,18.3,30.00,South,180,6.7,10.4,49,0.00,OVC,,0.00,100.0,WeatherDisplay:10.37,2013-01-06 15:16:00,
2013-01-06 10:21:00,35.6,18.3,30.00,SSW,202,5.9,8.1,49,0.00,OVC,,0.00,100.0,WeatherDisplay:10.37,2013-01-06 15:21:00,
2013-01-06 10:26:00,35.6,17.8,30.00,SW,225,8.1,12.7,48,0.00,OVC,,0.00,100.0,WeatherDisplay:10.37,2013-01-06 15:26:00,
2013-01-06 10:31:00,35.6,18.3,30.00,SW,225,7.6,8.3,49,0.00,OVC,,0.00,100.0,WeatherDisplay:10.37,2013-01-06 15:31:00,
2013-01-06 10:36:00,35.6,17.8,30.00,SSW,202,6.7,10.4,48,0.00,OVC,,0.00,100.0,WeatherDisplay:10.37,2013-01-06 15:36:00,
2013-01-06 10:41:00,35.6,17.8,30.00,South,180,5.9,8.1,48,0.00,OVC,,0.00,100.0,WeatherDisplay:10.37,2013-01-06 15:41:00,
2013-01-06 10:46:00,35.8,18.0,30.00,SW,225,4.9,10.9,48,0.00,OVC,,0.00,200.0,WeatherDisplay:10.37,2013-01-06 15:46:00,
2013-01-06 10:51:00,35.8,18.0,30.00,SSW,202,5.4,8.1,48,0.00,OVC,,0.00,200.0,WeatherDisplay:10.37,2013-01-06 15:51:00,
2013-01-06 10:56:00,36.0,18.1,30.00,South,180,5.9,12.8,48,0.00,OVC,,0.00,200.0,WeatherDisplay:10.37,2013-01-06 15:56:00,
2013-01-06 11:01:00,36.0,18.1,30.00,SW,225,4.9,7.1,48,0.00,OVC,,0.00,200.0,WeatherDisplay:10.37,2013-01-06 16:01:00,
2013-01-06 11:06:00,36.0,18.1,30.00,South,180,6.7,10.4,48,0.00,OVC,,0.00,200.0,WeatherDisplay:10.37,2013-01-06 16:06:00,
2013-01-06 11:11:00,36.0,17.7,29.97,West,270,9.7,11.5,47,0.00,OVC,,0.00,200.0,WeatherDisplay:10.37,2013-01-06 16:11:00,
2013-01-06 11:16:00,36.0,17.7,29.97,SE,135,9.2,10.9,47,0.00,OVC,,0.00,200.0,WeatherDisplay:10.37,2013-01-06 16:16:00,
2013-01-06 11:21:00,36.1,17.8,29.97,SW,225,8.1,10.0,47,0.00,OVC,,0.00,200.0,WeatherDisplay:10.37,2013-01-06 16:21:00,
2013-01-06 11:26:00,36.1,17.8,29.97,WSW,248,7.1,10.4,47,0.00,OVC,,0.00,200.0,WeatherDisplay:10.37,2013-01-06 16:26:00,
2013-01-06 11:31:00,36.1,17.8,29.97,SSW,202,8.1,9.2,47,0.00,OVC,,0.00,200.0,WeatherDisplay:10.37,2013-01-06 16:31:00,
2013-01-06 11:36:00,36.1,17.8,29.97,SW,225,7.6,11.5,47,0.00,OVC,,0.00,200.0,WeatherDisplay:10.37,2013-01-06 16:36:00,
2013-01-06 11:41:00,36.3,18.0,29.97,West,270,4.9,9.2,47,0.00,OVC,,0.00,200.0,WeatherDisplay:10.37,2013-01-06 16:41:00,
2013-01-06 11:46:00,36.3,18.0,29.97,SSW,202,5.9,10.4,47,0.00,OVC,,0.00,200.0,WeatherDisplay:10.37,2013-01-06 16:46:00,
2013-01-06 11:51:00,36.3,18.0,29.97,SW,225,6.2,9.2,47,0.00,OVC,,0.00,200.0,WeatherDisplay:10.37,2013-01-06 16:51:00,
2013-01-06 11:56:00,36.3,18.0,29.97,SW,225,6.2,8.1,47,0.00,OVC,,0.00,200.0,WeatherDisplay:10.37,2013-01-06 16:56:00,
2013-01-06 12:01:00,36.3,18.0,29.97,SW,225,4.0,8.1,47,0.00,OVC,,0.00,200.0,WeatherDisplay:10.37,2013-01-06 17:01:00,
2013-01-06 12:06:00,36.5,18.2,29.97,West,270,4.0,8.1,47,0.00,OVC,,0.00,200.0,WeatherDisplay:10.37,2013-01-06 17:06:00,
2013-01-06 12:11:00,36.5,18.2,29.94,SW,225,4.9,5.8,47,0.00,OVC,,0.00,200.0,WeatherDisplay:10.37,2013-01-06 17:11:00,
2013-01-06 12:16:00,36.5,18.2,29.94,WSW,248,5.4,8.3,47,0.00,OVC,,0.00,200.0,WeatherDisplay:10.37,2013-01-06 17:16:00,
2013-01-06 12:21:00,36.5,18.2,29.94,West,270,4.0,5.8,47,0.00,OVC,,0.00,200.0,WeatherDisplay:10.37,2013-01-06 17:21:00,
2013-01-06 12:26:00,36.5,18.2,29.94,SW,225,5.4,6.2,47,0.00,OVC,,0.00,200.0,WeatherDisplay:10.37,2013-01-06 17:26:00,
2013-01-06 12:31:00,36.5,18.2,29.94,SW,225,4.9,11.5,47,0.00,OVC,,0.00,200.0,WeatherDisplay:10.37,2013-01-06 17:31:00,
2013-01-06 12:36:00,36.7,18.3,29.94,SW,225,5.9,10.4,47,0.00,OVC,,0.00,300.0,WeatherDisplay:10.37,2013-01-06 17:36:00,
2013-01-06 12:41:00,36.7,18.3,29.94,SW,225,7.1,9.2,47,0.00,OVC,,0.00,300.0,WeatherDisplay:10.37,2013-01-06 17:41:00,
2013-01-06 12:46:00,36.7,18.3,29.94,SW,225,5.9,7.6,47,0.00,OVC,,0.00,300.0,WeatherDisplay:10.37,2013-01-06 17:46:00,
2013-01-06 12:51:00,36.9,18.0,29.94,WSW,248,7.1,8.1,46,0.00,OVC,,0.00,300.0,WeatherDisplay:10.37,2013-01-06 17:51:00,
2013-01-06 12:56:00,37.0,18.1,29.94,South,180,4.5,6.2,46,0.00,OVC,,0.00,300.0,WeatherDisplay:10.37,2013-01-06 17:56:00,
2013-01-06 13:01:00,37.0,18.1,29.94,West,270,5.9,8.1,46,0.00,OVC,,0.00,300.0,WeatherDisplay:10.37,2013-01-06 18:01:00,
2013-01-06 13:06:00,37.0,18.1,29.94,WNW,292,5.4,8.1,46,0.00,OVC,,0.00,300.0,WeatherDisplay:10.37,2013-01-06 18:06:00,
2013-01-06 13:11:00,37.0,18.1,29.94,South,180,5.4,8.1,46,0.00,OVC,,0.00,300.0,WeatherDisplay:10.37,2013-01-06 18:11:00,
2013-01-06 13:16:00,37.0,18.1,29.94,WSW,248,6.2,8.1,46,0.00,OVC,,0.00,300.0,WeatherDisplay:10.37,2013-01-06 18:16:00,
2013-01-06 13:21:00,37.0,18.1,29.94,West,270,6.2,9.2,46,0.00,OVC,,0.00,300.0,WeatherDisplay:10.37,2013-01-06 18:21:00,
2013-01-06 13:26:00,37.0,18.7,29.94,West,270,6.2,8.1,47,0.00,OVC,,0.00,200.0,WeatherDisplay:10.37,2013-01-06 18:26:00,
2013-01-06 13:31:00,37.0,18.7,29.94,SW,225,7.6,8.1,47,0.00,OVC,,0.00,200.0,WeatherDisplay:10.37,2013-01-06 18:31:00,
2013-01-06 13:36:00,36.9,18.5,29.94,SW,225,5.4,6.2,47,0.00,OVC,,0.00,100.0,WeatherDisplay:10.37,2013-01-06 18:36:00,
2013-01-06 13:41:00,36.9,18.5,29.94,SW,225,4.5,10.0,47,0.00,OVC,,0.00,100.0,WeatherDisplay:10.37,2013-01-06 18:41:00,
2013-01-06 13:46:00,36.9,19.0,29.94,SW,225,4.0,6.2,48,0.00,OVC,,0.00,100.0,WeatherDisplay:10.37,2013-01-06 18:46:00,
2013-01-06 13:51:00,36.7,18.8,29.94,West,270,4.5,8.1,48,0.00,OVC,,0.00,100.0,WeatherDisplay:10.37,2013-01-06 18:51:00,
2013-01-06 13:57:00,36.7,19.3,29.94,SSW,202,6.7,9.2,49,0.00,OVC,,0.00,0.0,WeatherDisplay:10.37,2013-01-06 18:57:00,
2013-01-06 14:02:00,36.7,19.3,29.94,West,270,4.9,10.4,49,0.00,OVC,,0.00,0.0,WeatherDisplay:10.37,2013-01-06 19:02:00,
2013-01-06 14:07:00,36.7,19.8,29.94,West,270,5.4,9.2,50,0.00,OVC,,0.00,100.0,WeatherDisplay:10.37,2013-01-06 19:07:00,
2013-01-06 14:12:00,36.7,19.8,29.94,SW,225,4.9,6.2,50,0.00,OVC,,0.00,100.0,WeatherDisplay:10.37,2013-01-06 19:12:00,
2013-01-06 14:17:00,36.5,20.1,29.94,WNW,292,6.2,8.3,51,0.00,OVC,,0.00,100.0,WeatherDisplay:10.37,2013-01-06 19:17:00,
2013-01-06 14:22:00,36.5,20.5,29.94,West,270,3.6,5.8,52,0.00,OVC,,0.00,100.0,WeatherDisplay:10.37,2013-01-06 19:22:00,
2013-01-06 14:27:00,36.5,21.0,29.94,South,180,4.0,6.9,53,0.00,OVC,,0.00,100.0,WeatherDisplay:10.37,2013-01-06 19:27:00,
2013-01-06 14:32:00,36.5,21.8,29.94,SW,225,6.2,8.1,55,0.00,OVC,,0.00,100.0,WeatherDisplay:10.37,2013-01-06 19:32:00,
2013-01-06 14:37:00,36.5,22.7,29.94,West,270,5.9,12.7,57,0.00,OVC,,0.00,100.0,WeatherDisplay:10.37,2013-01-06 19:37:00,
2013-01-06 14:47:00,36.5,23.1,29.94,West,270,4.5,5.9,58,0.00,OVC,,0.00,0.0,WeatherDisplay:10.37,2013-01-06 19:47:00,
2013-01-06 14:53:00,36.5,23.5,29.94,SW,225,7.6,8.1,59,0.00,OVC,,0.00,0.0,WeatherDisplay:10.37,2013-01-06 19:53:00,
2013-01-06 14:58:00,36.5,23.5,29.94,WSW,248,4.9,10.0,59,0.00,OVC,,0.00,0.0,WeatherDisplay:10.37,2013-01-06 19:58:00,
2013-01-06 15:04:00,36.7,23.7,29.94,West,270,4.9,11.5,59,0.00,OVC,,0.00,100.0,WeatherDisplay:10.37,2013-01-06 20:04:00,
2013-01-06 15:09:00,36.7,24.5,29.97,West,270,5.9,8.7,61,0.00,OVC,,0.00,100.0,WeatherDisplay:10.37,2013-01-06 20:09:00,
2013-01-06 15:12:00,36.7,24.9,29.97,SW,225,4.9,5.8,62,0.00,OVC,,0.00,100.0,WeatherDisplay:10.37,2013-01-06 20:12:00,
2013-01-06 15:13:00,36.7,24.9,29.97,SW,225,6.2,8.1,62,0.00,OVC,,0.00,100.0,WeatherDisplay:10.37,2013-01-06 20:13:00,
2013-01-06 15:18:00,36.9,25.8,29.97,SW,225,4.5,8.1,64,0.00,OVC,,0.00,100.0,WeatherDisplay:10.37,2013-01-06 20:18:00,
2013-01-06 15:23:00,36.9,26.6,29.97,NW,315,5.9,5.9,66,0.00,OVC,,0.00,100.0,WeatherDisplay:10.37,2013-01-06 20:23:00,
2013-01-06 15:28:00,36.9,27.3,29.97,West,270,2.6,8.1,68,0.00,OVC,,0.00,100.0,WeatherDisplay:10.37,2013-01-06 20:28:00,
2013-01-06 15:33:00,37.0,28.2,29.97,WSW,248,7.1,10.4,70,0.00,OVC,,0.00,100.0,WeatherDisplay:10.37,2013-01-06 20:33:00,
2013-01-06 15:38:00,37.0,28.8,29.97,West,270,6.2,7.6,72,0.00,OVC,,0.00,100.0,WeatherDisplay:10.37,2013-01-06 20:38:00,
2013-01-06 15:43:00,37.2,29.4,29.97,West,270,5.4,8.1,73,0.00,OVC,,0.00,100.0,WeatherDisplay:10.37,2013-01-06 20:43:00,
2013-01-06 15:48:00,37.4,29.9,29.97,SW,225,4.9,5.8,74,0.00,OVC,,0.00,0.0,WeatherDisplay:10.37,2013-01-06 20:48:00,
2013-01-06 15:54:00,37.6,30.4,29.97,South,180,4.9,7.1,75,0.00,OVC,,0.00,0.0,WeatherDisplay:10.37,2013-01-06 20:54:00,
2013-01-06 15:59:00,37.6,30.7,29.97,West,270,4.0,5.8,76,0.00,OVC,,0.00,0.0,WeatherDisplay:10.37,2013-01-06 20:59:00,
2013-01-06 16:02:00,37.6,30.7,29.97,West,270,5.9,10.4,76,0.00,OVC,,0.00,0.0,WeatherDisplay:10.37,2013-01-06 21:02:00,
2013-01-06 16:07:00,37.8,31.2,29.97,West,270,4.5,5.8,77,0.00,OVC,,0.00,0.0,WeatherDisplay:10.37,2013-01-06 21:07:00,
2013-01-06 16:12:00,37.9,31.7,29.97,WSW,248,4.0,8.1,78,0.00,OVC,,0.00,0.0,WeatherDisplay:10.37,2013-01-06 21:12:00,
2013-01-06 16:17:00,37.9,31.7,29.97,WNW,292,5.9,8.3,78,0.00,OVC,,0.00,0.0,WeatherDisplay:10.37,2013-01-06 21:17:00,
2013-01-06 16:22:00,37.9,31.7,30.00,SW,225,4.5,5.8,78,0.00,OVC,,0.00,0.0,WeatherDisplay:10.37,2013-01-06 21:22:00,
2013-01-06 16:27:00,37.4,31.2,30.00,WNW,292,7.1,10.4,78,0.00,OVC,,0.00,0.0,WeatherDisplay:10.37,2013-01-06 21:27:00,
2013-01-06 16:32:00,37.4,30.8,30.00,West,270,6.7,9.2,77,0.00,OVC,,0.00,0.0,WeatherDisplay:10.37,2013-01-06 21:32:00,
2013-01-06 16:37:00,37.0,30.2,30.00,NNW,338,6.7,8.1,76,0.00,OVC,,0.00,0.0,WeatherDisplay:10.37,2013-01-06 21:37:00,
2013-01-06 16:42:00,37.0,30.2,30.00,WSW,248,5.9,8.3,76,0.00,OVC,,0.00,0.0,WeatherDisplay:10.37,2013-01-06 21:42:00,
2013-01-06 16:47:00,36.9,29.7,30.00,WNW,292,8.3,11.5,75,0.00,OVC,,0.00,0.0,WeatherDisplay:10.37,2013-01-06 21:47:00,
2013-01-06 16:52:00,36.9,29.7,30.00,West,270,5.4,10.4,75,0.00,OVC,,0.00,0.0,WeatherDisplay:10.37,2013-01-06 21:52:00,
2013-01-06 16:57:00,36.9,29.7,30.00,West,270,9.7,13.8,75,0.00,OVC,,0.00,0.0,WeatherDisplay:10.37,2013-01-06 21:57:00,
2013-01-06 17:02:00,36.9,29.7,30.00,WNW,292,10.0,13.2,75,0.00,OVC,,0.00,0.0,WeatherDisplay:10.37,2013-01-06 22:02:00,
2013-01-06 17:07:00,36.7,29.2,30.00,West,270,9.7,15.0,74,0.00,OVC,,0.00,0.0,WeatherDisplay:10.37,2013-01-06 22:07:00,
2013-01-06 17:12:00,35.8,27.6,30.00,West,270,11.8,20.7,72,0.00,OVC,,0.00,0.0,WeatherDisplay:10.37,2013-01-06 22:12:00,
2013-01-06 17:17:00,35.4,27.3,30.00,West,270,11.4,14.5,72,0.00,OVC,,0.00,0.0,WeatherDisplay:10.37,2013-01-06 22:17:00,
2013-01-06 17:22:00,35.2,27.4,30.00,NW,315,9.7,11.5,73,0.00,OVC,,0.00,0.0,WeatherDisplay:10.37,2013-01-06 22:22:00,
2013-01-06 17:27:00,35.2,27.8,30.00,West,270,8.7,10.9,74,0.00,OVC,,0.00,0.0,WeatherDisplay:10.37,2013-01-06 22:27:00,
2013-01-06 17:32:00,35.2,28.1,30.00,NW,315,10.9,12.7,75,0.00,OVC,,0.00,0.0,WeatherDisplay:10.37,2013-01-06 22:32:00,
2013-01-06 17:37:00,34.7,27.9,30.03,West,270,13.2,16.1,76,0.00,OVC,,0.00,0.0,WeatherDisplay:10.37,2013-01-06 22:37:00,
2013-01-06 17:42:00,33.3,23.5,30.03,WNW,292,13.7,17.5,67,0.00,OVC,,0.00,0.0,WeatherDisplay:10.37,2013-01-06 22:42:00,
2013-01-06 17:47:00,33.3,23.1,30.03,WNW,292,9.2,13.8,66,0.00,OVC,,0.00,0.0,WeatherDisplay:10.37,2013-01-06 22:47:00,
2013-01-06 17:52:00,33.1,22.2,30.03,NW,315,12.3,16.3,64,0.00,CLR,,0.00,0.0,WeatherDisplay:10.37,2013-01-06 22:52:00,
2013-01-06 17:57:00,32.9,21.7,30.03,West,270,11.4,15.0,63,0.00,CLR,,0.00,0.0,WeatherDisplay:10.37,2013-01-06 22:57:00,
2013-01-06 18:02:00,32.7,21.1,30.03,NW,315,8.1,12.7,62,0.00,CLR,,0.00,0.0,WeatherDisplay:10.37,2013-01-06 23:02:00,
2013-01-06 18:07:00,32.7,21.5,30.03,West,270,9.7,12.3,63,0.00,CLR,,0.00,0.0,WeatherDisplay:10.37,2013-01-06 23:07:00,
2013-01-06 18:12:00,32.7,21.9,30.03,WNW,292,10.5,15.0,64,0.00,CLR,,0.00,0.0,WeatherDisplay:10.37,2013-01-06 23:12:00,
2013-01-06 18:17:00,32.7,22.2,30.03,West,270,8.3,10.5,65,0.00,CLR,,0.00,0.0,WeatherDisplay:10.37,2013-01-06 23:17:00,
2013-01-06 18:22:00,32.2,21.7,30.06,NW,315,13.2,18.4,65,0.00,CLR,,0.00,0.0,WeatherDisplay:10.37,2013-01-06 23:22:00,
2013-01-06 18:27:00,31.6,20.1,30.06,NW,315,13.2,13.8,62,0.00,CLR,,0.00,0.0,WeatherDisplay:10.37,2013-01-06 23:27:00,
2013-01-06 18:32:00,31.6,20.1,30.06,NW,315,8.7,11.5,62,0.00,CLR,,0.00,0.0,WeatherDisplay:10.37,2013-01-06 23:32:00,
2013-01-06 18:37:00,31.1,18.4,30.06,NW,315,12.3,18.4,59,0.00,CLR,,0.00,0.0,WeatherDisplay:10.37,2013-01-06 23:37:00,
2013-01-06 18:42:00,31.3,19.0,30.06,WNW,292,4.9,10.4,60,0.00,CLR,,0.00,0.0,WeatherDisplay:10.37,2013-01-06 23:42:00,
2013-01-06 18:47:00,31.3,19.4,30.06,West,270,10.5,13.8,61,0.00,CLR,,0.00,0.0,WeatherDisplay:10.37,2013-01-06 23:47:00,
2013-01-06 18:52:00,31.1,19.2,30.09,WNW,292,8.3,13.8,61,0.00,CLR,,0.00,0.0,WeatherDisplay:10.37,2013-01-06 23:52:00,
2013-01-06 18:57:00,30.2,18.7,30.09,NW,315,10.9,16.1,62,0.00,CLR,,0.00,0.0,WeatherDisplay:10.37,2013-01-06 23:57:00,
2013-01-06 19:02:00,29.8,18.4,30.09,West,270,13.7,17.3,62,0.00,CLR,,0.00,0.0,WeatherDisplay:10.37,2013-01-07 00:02:00,
2013-01-06 19:07:00,29.7,17.5,30.09,WSW,248,8.7,15.0,60,0.00,CLR,,0.00,0.0,WeatherDisplay:10.37,2013-01-07 00:07:00,
2013-01-06 19:12:00,29.5,17.3,30.09,West,270,14.0,17.5,60,0.00,CLR,,0.00,0.0,WeatherDisplay:10.37,2013-01-07 00:12:00,
2013-01-06 19:17:00,29.5,17.3,30.09,NW,315,8.7,16.1,60,0.00,CLR,,0.00,0.0,WeatherDisplay:10.37,2013-01-07 00:17:00,
2013-01-06 19:22:00,29.5,17.7,30.09,NW,315,8.7,12.7,61,0.00,CLR,,0.00,0.0,WeatherDisplay:10.37,2013-01-07 00:22:00,
2013-01-06 19:27:00,29.5,17.7,30.09,NW,315,7.1,9.2,61,0.00,CLR,,0.00,0.0,WeatherDisplay:10.37,2013-01-07 00:27:00,
2013-01-06 19:32:00,29.5,17.3,30.09,West,270,9.2,12.3,60,0.00,CLR,,0.00,0.0,WeatherDisplay:10.37,2013-01-07 00:32:00,
2013-01-06 19:37:00,29.5,17.3,30.09,WNW,292,4.5,9.2,60,0.00,CLR,,0.00,0.0,WeatherDisplay:10.37,2013-01-07 00:37:00,
2013-01-06 19:42:00,29.3,17.1,30.12,West,270,5.9,8.1,60,0.00,CLR,,0.00,0.0,WeatherDisplay:10.37,2013-01-07 00:42:00,
2013-01-06 19:47:00,28.8,15.8,30.12,West,270,10.5,15.0,58,0.00,CLR,,0.00,0.0,WeatherDisplay:10.37,2013-01-07 00:47:00,
2013-01-06 19:52:00,28.6,15.3,30.12,NW,315,7.6,10.4,57,0.00,CLR,,0.00,0.0,WeatherDisplay:10.37,2013-01-07 00:52:00,
2013-01-06 19:58:00,28.0,13.9,30.12,WNW,292,8.3,12.7,55,0.00,CLR,,0.00,0.0,WeatherDisplay:10.37,2013-01-07 00:58:00,
2013-01-06 20:03:00,27.9,13.3,30.12,NW,315,9.2,12.7,54,0.00,CLR,,0.00,0.0,WeatherDisplay:10.37,2013-01-07 01:03:00,
2013-01-06 20:08:00,27.9,13.3,30.12,WNW,292,7.6,10.4,54,0.00,CLR,,0.00,0.0,WeatherDisplay:10.37,2013-01-07 01:08:00,
2013-01-06 20:13:00,27.7,13.6,30.12,West,270,6.7,11.5,55,0.00,CLR,,0.00,0.0,WeatherDisplay:10.37,2013-01-07 01:13:00,
2013-01-06 20:18:00,27.7,13.6,30.12,WNW,292,6.7,11.5,55,0.00,CLR,,0.00,0.0,WeatherDisplay:10.37,2013-01-07 01:18:00,
2013-01-06 20:23:00,27.7,14.0,30.12,West,270,8.3,13.2,56,0.00,CLR,,0.00,0.0,WeatherDisplay:10.37,2013-01-07 01:23:00,
2013-01-06 20:28:00,27.7,14.0,30.12,NW,315,8.3,10.4,56,0.00,CLR,,0.00,0.0,WeatherDisplay:10.37,2013-01-07 01:28:00,
2013-01-06 20:33:00,27.5,13.8,30.12,NW,315,8.7,10.9,56,0.00,CLR,,0.00,0.0,WeatherDisplay:10.37,2013-01-07 01:33:00,
2013-01-06 20:38:00,27.5,13.8,30.12,West,270,10.5,13.7,56,0.00,CLR,,0.00,0.0,WeatherDisplay:10.37,2013-01-07 01:38:00,
2013-01-06 20:43:00,27.7,14.4,30.12,NW,315,7.1,8.3,57,0.00,CLR,,0.00,0.0,WeatherDisplay:10.37,2013-01-07 01:43:00,
2013-01-06 20:48:00,27.5,14.2,30.12,NW,315,5.9,7.1,57,0.00,CLR,,0.00,0.0,WeatherDisplay:10.37,2013-01-07 01:48:00,
2013-01-06 20:53:00,27.3,13.7,30.15,West,270,7.1,9.2,56,0.00,CLR,,0.00,0.0,WeatherDisplay:10.37,2013-01-07 01:53:00,
2013-01-06 20:58:00,27.3,14.1,30.15,NW,315,9.2,10.4,57,0.00,CLR,,0.00,0.0,WeatherDisplay:10.37,2013-01-07 01:58:00,
2013-01-06 21:03:00,27.3,14.1,30.15,WNW,292,8.1,10.4,57,0.00,CLR,,0.00,0.0,WeatherDisplay:10.37,2013-01-07 02:03:00,
2013-01-06 21:08:00,27.1,13.9,30.15,West,270,8.3,12.7,57,0.00,CLR,,0.00,0.0,WeatherDisplay:10.37,2013-01-07 02:08:00,
2013-01-06 21:13:00,27.3,14.1,30.15,West,270,6.2,8.7,57,0.00,CLR,,0.00,0.0,WeatherDisplay:10.37,2013-01-07 02:13:00,
2013-01-06 21:18:00,27.3,14.5,30.15,WNW,292,5.9,8.3,58,0.00,CLR,,0.00,0.0,WeatherDisplay:10.37,2013-01-07 02:18:00,
2013-01-06 21:23:00,27.3,14.5,30.18,West,270,4.5,7.6,58,0.00,CLR,,0.00,0.0,WeatherDisplay:10.37,2013-01-07 02:23:00,
2013-01-06 21:28:00,27.1,14.3,30.18,West,270,7.6,8.1,58,0.00,CLR,,0.00,0.0,WeatherDisplay:10.37,2013-01-07 02:28:00,
2013-01-06 21:33:00,27.3,14.9,30.18,West,270,7.6,10.4,59,0.00,CLR,,0.00,0.0,WeatherDisplay:10.37,2013-01-07 02:33:00,
2013-01-06 21:38:00,27.3,14.9,30.15,West,270,6.2,7.6,59,0.00,CLR,,0.00,0.0,WeatherDisplay:10.37,2013-01-07 02:38:00,
2013-01-06 21:43:00,27.1,14.7,30.15,WNW,292,7.1,11.5,59,0.00,CLR,,0.00,0.0,WeatherDisplay:10.37,2013-01-07 02:43:00,
2013-01-06 21:48:00,27.1,15.1,30.15,WNW,292,6.2,8.1,60,0.00,CLR,,0.00,0.0,WeatherDisplay:10.37,2013-01-07 02:48:00,
2013-01-06 21:53:00,27.1,15.1,30.15,West,270,4.9,8.1,60,0.00,CLR,,0.00,0.0,WeatherDisplay:10.37,2013-01-07 02:53:00,
2013-01-06 21:58:00,27.0,14.9,30.15,NW,315,6.2,10.4,60,0.00,CLR,,0.00,0.0,WeatherDisplay:10.37,2013-01-07 02:58:00,
2013-01-06 22:03:00,27.0,14.9,30.15,West,270,6.7,8.7,60,0.00,CLR,,0.00,0.0,WeatherDisplay:10.37,2013-01-07 03:03:00,
2013-01-06 22:08:00,27.1,15.5,30.18,SW,225,5.4,8.1,61,0.00,CLR,,0.00,0.0,WeatherDisplay:10.37,2013-01-07 03:08:00,
2013-01-06 22:13:00,27.1,15.5,30.18,West,270,6.7,8.1,61,0.00,CLR,,0.00,0.0,WeatherDisplay:10.37,2013-01-07 03:13:00,
2013-01-06 22:18:00,27.0,15.7,30.18,West,270,8.1,10.4,62,0.00,CLR,,0.00,0.0,WeatherDisplay:10.37,2013-01-07 03:18:00,
2013-01-06 22:23:00,27.1,15.8,30.18,WNW,292,5.4,7.6,62,0.00,CLR,,0.00,0.0,WeatherDisplay:10.37,2013-01-07 03:23:00,
2013-01-06 22:28:00,27.1,16.2,30.18,WSW,248,6.2,8.1,63,0.00,CLR,,0.00,0.0,WeatherDisplay:10.37,2013-01-07 03:28:00,
2013-01-06 22:33:00,27.1,16.2,30.18,WNW,292,5.4,5.8,63,0.00,CLR,,0.00,0.0,WeatherDisplay:10.37,2013-01-07 03:33:00,
2013-01-06 22:38:00,27.1,16.2,30.18,WNW,292,6.2,8.7,63,0.00,CLR,,0.00,0.0,WeatherDisplay:10.37,2013-01-07 03:38:00,
2013-01-06 22:43:00,27.3,16.7,30.18,NW,315,6.7,10.5,64,0.00,CLR,,0.00,0.0,WeatherDisplay:10.37,2013-01-07 03:43:00,
2013-01-06 22:48:00,27.3,16.7,30.18,WSW,248,7.1,8.3,64,0.00,CLR,,0.00,0.0,WeatherDisplay:10.37,2013-01-07 03:48:00,
2013-01-06 22:53:00,27.3,16.7,30.18,West,270,7.6,9.2,64,0.00,CLR,,0.00,0.0,WeatherDisplay:10.37,2013-01-07 03:53:00,
2013-01-06 22:58:00,27.5,17.3,30.18,West,270,4.9,7.1,65,0.00,CLR,,0.00,0.0,WeatherDisplay:10.37,2013-01-07 03:58:00,
2013-01-06 23:03:00,27.5,17.3,30.18,WNW,292,5.4,6.9,65,0.00,CLR,,0.00,0.0,WeatherDisplay:10.37,2013-01-07 04:03:00,
2013-01-06 23:08:00,27.5,17.3,30.18,West,270,5.9,5.9,65,0.00,CLR,,0.00,0.0,WeatherDisplay:10.37,2013-01-07 04:08:00,
2013-01-06 23:13:00,27.5,17.6,30.18,WNW,292,7.1,9.2,66,0.00,CLR,,0.00,0.0,WeatherDisplay:10.37,2013-01-07 04:13:00,
2013-01-06 23:18:00,27.5,17.6,30.18,West,270,5.9,7.6,66,0.00,CLR,,0.00,0.0,WeatherDisplay:10.37,2013-01-07 04:18:00,
2013-01-06 23:23:00,27.7,17.8,30.21,West,270,6.7,6.9,66,0.00,CLR,,0.00,0.0,WeatherDisplay:10.37,2013-01-07 04:23:00,
2013-01-06 23:28:00,27.7,17.8,30.21,NW,315,4.0,5.9,66,0.00,CLR,,0.00,0.0,WeatherDisplay:10.37,2013-01-07 04:28:00,
2013-01-06 23:33:00,27.7,17.8,30.21,West,270,4.0,5.9,66,0.00,CLR,,0.00,0.0,WeatherDisplay:10.37,2013-01-07 04:33:00,
2013-01-06 23:38:00,27.7,17.8,30.21,WSW,248,4.5,5.4,66,0.00,CLR,,0.00,0.0,WeatherDisplay:10.37,2013-01-07 04:38:00,
2013-01-06 23:43:00,27.7,17.8,30.21,SW,225,4.9,5.9,66,0.00,CLR,,0.00,0.0,WeatherDisplay:10.37,2013-01-07 04:43:00,
2013-01-06 23:49:00,27.9,18.3,30.21,NW,315,4.0,5.9,67,0.00,CLR,,0.00,0.0,WeatherDisplay:10.37,2013-01-07 04:49:00,
2013-01-06 23:54:00,27.9,18.3,30.21,West,270,5.4,8.1,67,0.00,CLR,,0.00,0.0,WeatherDisplay:10.37,2013-01-07 04:54:00,
2013-01-06 23:59:00,27.9,18.3,30.21,West,270,4.9,5.9,67,0.00,CLR,,0.00,0.0,WeatherDisplay:10.37,2013-01-07 04:59:00,